Regional Weather Roundup
Issued by NWS Albany, NY

Home | Current Version | Previous Version | Graphics & Text | Print | Product List | Glossary On
Versions: 1 2 3 4 5 6 7 8 9 10 11 12 13 14 15 16 17 18 19 20 21 22 23 24 25 26 27 28 29 30 31 32 33 34 35 36 37 38 39 40 41 42 43 44 45 46 47 48 49 50
000
ASUS41 KALY 110210
RWRALY

NEW YORK STATE HOURLY WEATHER ROUNDUP
NATIONAL WEATHER SERVICE ALBANY NY
900 PM EST WED FEB 10 2016

NOTE: "FAIR" INDICATES FEW OR NO CLOUDS BELOW 12,000 FEET WITH NO
SIGNIFICANT WEATHER AND/OR NO OBSTRUCTIONS TO VISIBILITY.

NYZ032-033-038>043-046>054-057>066-NYZ062>081-110300-
EAST


CITY           SKY/WX    TMP DP  RH WIND       PRES   REMARKS
ALBANY         PTCLDY    29  17  61 NW9       29.68R WCI  20
GLENS FALLS    MOCLDY    29  15  56 SW3       29.65R
POUGHKEEPSIE   CLOUDY    33  17  51 W7        29.69R WCI  27
NEWBURGH       MOCLDY    32  23  69 W12       29.69R WCI  23
MONTGOMERY     CLOUDY    33  19  56 NW9       29.69R WCI  25
WHITE PLAINS   FLURRIES  33  17  51 W6        29.68R WCI  28
ISLIP          PTCLDY    32  18  56 W10       29.69S WCI  24
NEW YORK CITY  PTCLDY    34  16  47 W17G24    29.73R WCI  23
CENTRAL PARK   CLEAR     32  15  49 VRB3      29.75R
$$

NYZ005>009-017-018-044>046-055-056-110300-
CENTRAL


CITY           SKY/WX    TMP DP  RH WIND       PRES   REMARKS
FULTON         LGT SNOW  25  18  74 W10G21    29.72R WCI  15
SYRACUSE       CLOUDY    24  16  71 SW17G26   29.71R WCI  11
ROME           LGT SNOW  24  21  88 W13       29.70S FOG     WCI  12
ELMIRA         CLOUDY    22   8  55 W17G30    29.75R WCI   8
BINGHAMTON     CLOUDY    21  14  74 NW9G21    29.65S WCI  11
MONTICELLO     CLOUDY    25  19  80 W12       29.66R WCI  14
$$

NYZ026>034-041>043-110300-
NORTH


CITY           SKY/WX    TMP DP  RH WIND       PRES   REMARKS
WATERTOWN      CLOUDY    24  18  77 W13       29.69R WCI  12
FORT DRUM      NOT AVBL
MASSENA        CLOUDY    20  12  71 W6        29.69R WCI  12
SARANAC LAKE   PTCLDY    15  13  91 SW5       29.55S WCI   8
PLATTSBURGH    CLOUDY    23  18  81 CALM      29.65R
$$

NYZ001>004-010>016-019>021-110300-
WEST


CITY           SKY/WX    TMP DP  RH WIND       PRES   REMARKS
NIAGARA FALLS  FLURRIES  18   9  68 W16G28    29.80R WCI   3
BUFFALO        FLURRIES  16   8  71 W20G26    29.79R WCI  -1
DUNKIRK        FLURRIES  18   9  68 W17G24    29.84S WCI   3
JAMESTOWN      CLOUDY    12   7  79 W15G22    29.75S WCI  -4
WELLSVILLE     CLOUDY    14   4  64 W14       29.71R WCI  -1
ROCHESTER      LGT SNOW  20  15  81 W15       29.76R WCI   6
PENN YAN       CLOUDY    22   8  55 W20G31    29.73R WCI   7
$$

             KEY
       WCI = WIND CHILL INDEX
       VSB = VISIBILITY
       HX  = HEAT INDEX
$$



USA.gov is the U.S. government's official web portal to all federal, state and local government web resources and services.